Change the Weather History Date:

Thursday, February 27, 2014

  Actual Average Record
Temperature  
Mean Temperature 42 °F -  
Max Temperature 55 °F 62 °F 82 °F (2006)
Min Temperature 28 °F 43 °F 24 °F (2002)
Degree Days  
Heating Degree Days 24    
Moisture  
Dew Point 27 °F    
Average Humidity 64    
Maximum Humidity 92    
Minimum Humidity 27    
Precipitation  
Precipitation 0.00 in - - ()
Sea Level Pressure  
Sea Level Pressure 30.09 in    
Wind  
Wind Speed 2 mph (NE)    
Max Wind Speed 5 mph    
Max Gust Speed -    
Visibility 10 miles    
Events      
Averages and records for this station are not official NWS values.
T = Trace of Precipitation, MM = Missing Value Source: NWS Daily Summary

Daily Weather History Graph

Daily Weather History Graph

Search for Another Location

Airport or City:

Trip Planner

Search our weather history database for the weather conditions in past years. The results will help you decide how hot, cold, wet, or windy it might be!

Date:

Astronomy

Feb. 27, 2014 Rise Set
Actual Time 6:41 AM CST 6:09 PM CST
Civil Twilight 6:17 AM CST 6:34 PM CST
Nautical Twilight 5:49 AM CST 7:02 PM CST
Astronomical Twilight 5:21 AM CST 7:30 PM CST
Moon 5:09 AM CST (2/27) 4:39 PM CST (2/27)
Length of Visible Light 12h 16m
Length of Day
11h 28m
Waning Crescent, 4% of the Moon is Illuminated
Feb 27
Waning Crescent
Mar 1
New
Mar 8
First Quarter
Mar 16
Full
Mar 23
Last Quarter

Hourly Weather History & Observations

Time (CST) Temp. Windchill Dew Point Humidity Pressure Visibility Wind Dir Wind Speed Gust Speed Precip Events Conditions
12:55 AM 33.1 °F 30.0 °F 30.0 °F 89% 30.15 in 10.0 mi North 3.5 mph - N/A   Clear
1:55 AM 32.0 °F 27.5 °F 28.0 °F 85% 30.14 in 10.0 mi North 4.6 mph - N/A   Clear
2:55 AM 30.9 °F - 28.9 °F 92% 30.13 in 10.0 mi Calm Calm - N/A   Clear
3:55 AM 30.0 °F - 28.0 °F 92% 30.12 in 10.0 mi Calm Calm - N/A   Clear
4:55 AM 30.9 °F - 27.0 °F 85% 30.13 in 10.0 mi Calm Calm - N/A   Clear
5:55 AM 28.9 °F 25.2 °F 26.1 °F 89% 30.15 in 10.0 mi North 3.5 mph - N/A   Clear
6:55 AM 28.9 °F 23.9 °F 26.1 °F 89% 30.16 in 10.0 mi North 4.6 mph - N/A   Clear
7:55 AM 32.0 °F 27.5 °F 26.1 °F 79% 30.18 in 10.0 mi North 4.6 mph - N/A   Clear
8:55 AM 37.0 °F - 26.1 °F 65% 30.19 in 10.0 mi Calm Calm - N/A   Clear
9:55 AM 41.0 °F 39.0 °F 23.0 °F 49% 30.19 in 10.0 mi Variable 3.5 mph - N/A   Clear
10:55 AM 46.0 °F 44.8 °F 24.1 °F 42% 30.17 in 10.0 mi Variable 3.5 mph - N/A   Clear
11:55 AM 48.9 °F - 24.1 °F 38% 30.14 in 10.0 mi Variable 4.6 mph - N/A   Clear
12:55 PM 50.0 °F - 23.0 °F 35% 30.11 in 10.0 mi WSW 4.6 mph - N/A   Clear
1:55 PM 52.0 °F - 19.9 °F 28% 30.06 in 10.0 mi Calm Calm - N/A   Clear
2:55 PM 54.0 °F - 21.0 °F 28% 30.05 in 10.0 mi Variable 3.5 mph - N/A   Clear
3:55 PM 55.9 °F - 21.9 °F 27% 30.03 in 10.0 mi Calm Calm - N/A   Clear
4:55 PM 55.0 °F - 21.0 °F 27% 30.01 in 10.0 mi Calm Calm - N/A   Clear
5:55 PM 52.0 °F - 25.0 °F 35% 30.01 in 10.0 mi SE 3.5 mph - N/A   Clear
6:55 PM 45.0 °F - 34.0 °F 65% 30.01 in 10.0 mi Calm Calm - N/A   Clear
7:55 PM 41.0 °F - 34.0 °F 76% 30.03 in 10.0 mi Calm Calm - N/A   Clear
8:55 PM 39.0 °F - 34.0 °F 82% 30.04 in 10.0 mi Calm Calm - N/A   Clear
9:55 PM 37.9 °F 35.5 °F 33.1 °F 83% 30.04 in 10.0 mi SE 3.5 mph - N/A   Clear
10:55 PM 39.0 °F 36.8 °F 33.1 °F 79% 30.02 in 10.0 mi SE 3.5 mph - N/A   Clear
11:55 PM 37.9 °F 35.5 °F 34.0 °F 86% 30.00 in 10.0 mi SE 3.5 mph - N/A   Clear